一网星座-0523星 (ONEWEB-0523 )

导读

ONEWEB-0523是英国OneWeb星座的通信卫星,于2022年10月22日发射入轨。OneWeb星座由英国主导建设,旨在打造低轨全球互联网通信系统,卫星部署在1200公里近地轨道,相比高轨通信拥有更低时延。 它主要为全球范围提供宽带互联网接入服务,后续第二代OneWeb卫星还规划增加定位导航授时功能,可和GPS、伽利略等系统竞争,同时该卫星技术也存在被开发用于军事通信、导航的潜在价值。

Basic Information
目录编号:
54141
目录名称:
ONEWEB-0523
国际标识:
2022-138AE
轨道中心:
EARTH
卫星名称:
一网星座-0523星
卫星全名:
一网星座-0523星 (ONEWEB-0523 )
卫星状态:
在轨 (已飞行1421 天)
发射日期:
2022-10-22 UTC
国别 :
英国 (GB)
星等 :
--
This satellite is enrolled in the Space Conjunction Data Service (SCDS) and the current flight risk assessment level is: No High Risk
Orbit Information
数据来源 国际轨道数据
星历时间: 2026-09-12T02:30:02+0800
12小时前
查看轨道信息
半长轴: 7559.908km
偏心率: 0.0001683
轨道倾角: 87.914°
近地点辐角 112.529°
升交点赤经 257.171°
平近点角 247.602°
近地点: 1180.498km
远地点: 1183.044km
周期: 109.027分钟
每日圈数: 13.207725
Detailed Information
平衡模式:
三轴稳定
覆盖范围:
全球
运营商:
一网卫星公司
运营商所在国:
英国
制造商(研发单位):
一网卫星公司
制造商所在国:
英国
使用方式:
暂无
Satellite Introduction
OneWeb卫星网络由648颗重约125公斤的微型卫星组成,运行在1200公里的轨道上。 每颗卫星都能够提供至少每秒8千兆位的吞吐量,以使用其高吞吐量的Ku频段有效载荷为家庭和移动平台提供互联网接入。该卫星仍在工作。
2D Orbit Map
3D Orbit Map
Orbit Altitude Analysis Chart
Orbit Inclination Analysis Chart
Orbit Comprehensive Analysis Chart
View Comprehensive Chart
Conjunction Data List
Event ID Objects TCA Miss Dist (km) Collision Risk Probability Collision Risk Index (CRI) Action
CDM_260914-032303-404005-414122
2026-09-14T
03:23:54+0000
1.305 km
极远距离
7.419368E-6 低风险 0.52
CDM_260911-180804-533405-414127
2026-09-11T
18:08:52+0000
2.910 km
极远距离
1.350183E-6 低风险 0.38
Miss Distance Evolution Trend with All Objects
Collision Probability Evolution Trend with All Objects